User: anonymous   Login
Location: Pabrico
(37.5827°N, 122.0063°W)
Time: 14:56:00
(UTC+00:00)
Language:

ARIANE 5 R/B - Orbit

View from above orbital plane
View from above orbital plane
View from above satellite
View from above satellite

Ground track
Ground track

The orbit data is extracted from the following two-line orbital elements,

1 27387U 02009B   24170.47955609  .00000160  00000-0  69786-4 0  9994
2 27387  98.7976 160.6105 0033291 115.9952 244.4668 14.36403422168710
Epoch (UTC): 18 June 2024 11:30:33
Eccentricity: 0.0033291
inclination: 98.7976°
perigee height: 746 km
apogee height: 794 km
right ascension of ascending node: 160.6105°
argument of perigee: 115.9952°
revolutions per day: 14.36403422
mean anomaly at epoch: 244.4668°
orbit number at epoch: 16871

The dashed part of the orbit path shows where the satellite is in the earth's shadow,  

DLR